THOR AGENA B R/B, 426

Orbit data source: Space-Track

THOR AGENA B R/B, 426 is space debris in LEO originally from a launch on Sat, 29 Sep 1962 UTC via a THOR AGENA B launch vehicle from the Air Force Western Test Range (AFWTR). Debris objects in space refer to the collection of defunct objects orbiting the Earth. Examples of debris include non-operational satellites, rocket bodies, and fragments generated from explosions, collisions, or faulty payload assembly.

Loading next visibility...
THOR AGENA B R/B details
Identifier
426, 1962-049B
Orbit
LEO
Last TLE update15 hours ago
Origin
Flag of USGSFC (US)
ManufacturerGSFC
MissionSpacecraft
Bus & MotorTAVE, Unknown motor
Mass900 kg wet, 91 kg dry
Launch date (UTC)
1962-09-29 (62 years ago)
Launch vehicle
THOR AGENA B
Launch site
Air Force Western Test Range (AFWTR)
Object type
Payload
Rocket body
Debris
Shape & HBRCyl + 1 Nozzle, 6.3 m
Radar Cross Section8.306 m², Large (>1 m²)

Expand to show TLE details & history

TLE from 15 hours ago
0 THOR AGENA B R/B
1   426U 62049B   25037.47530538  .00000124  00000-0  13359-3 0  9996
2   426  80.4692  37.7160 0018760  67.8226  43.1169 13.68692230112918
Epoch: 2025-02-06T11:24Z
Definitive object data (Epoch: 2025-02-06T11:24:26.384Z)
Latitude67.03271°
Longitude-113.45591°
Altitude1,005.693 km
Speed7.36 km/s
True Right ascension12h 58m 01s
True Declination66° 54' 47"
Sunlit
Object was in daylight at TLE epoch
Visualization TLE readout
Latitude-47.97995°
Longitude-80.16344°
Altitude1,035.959 km
Speed7.326 km/s
Apparent Right ascension15h 40m 31s
Apparent Declination-44° 18' 49"
Sunlit
Object is in daylight
Visualization observer readout
Local Sidereal Time04:10:17
Azimuth130.996° SE
Elevation-82.948°
Doppler factor1
Orbital elements
Apogee altitude1,015.382 km
Perigee altitude987.693 km
Semi-major axis7,379.675 km
Eccentricity0.001876
Inclination80.4692°
RAAN37.716°
Arg. of periapsis67.8226°
True anomaly43.26408°
Mean anomaly43.1169°
Eccentric anomaly43.19047°
Mean motion3.42363 °/min
BSTAR0.00013359
Orbital period105.15 mins
Loading maneuver chart data...
Loading historical data...
Loading historical data...
Loading historical data...
Loading historical data...
Loading historical data...
Loading historical data...
Loading historical data...
Other satellites on launch #49 in the year 1962 (1962-09-29 UTC)

THOR AGENA B R/B Visibility forecast

Observer location: undefined°, undefined

Span
Click to sort rows by Start time (UTC) header in descending order
Start Az.
Max El. time (UTC)
Max El. Az.
Max El.
End time (UTC)
End Az.
8 mins2025-02-07 10:15:57.166Z24.636° NE2025-02-07 10:19:57.166Z68.34° E19.626°2025-02-07 10:23:57.166Z110.264° ESE
10 mins2025-02-07 12:01:57.166Z338.569° N2025-02-07 12:06:57.166Z248.201° W40.682°2025-02-07 12:11:57.166Z188.095° SSW
9 mins2025-02-07 23:49:57.166Z148.233° SSE2025-02-07 23:53:57.166Z96.391° ESE30.542°2025-02-07 23:58:57.166Z31.568° NE
10 mins2025-02-08 01:35:57.166Z231.581° WSW2025-02-08 01:40:57.166Z297.235° NW28.409°2025-02-08 01:45:57.166Z351.187° N
|